Simultaneous Nadir Overpasses (SNOs) Predictions

Prediction of SNOs between NOAA-19 and METOP-C Satellite Orbit:

Table of predicted SNOs for the next 14.0 days since TLE Epoch: 7/19/2025
Index Date (NOAA-19) Time (NOAA-19) Lat,Lon (NOAA-19) SZA (NOAA-19 ) Date (METOP-C) Time (METOP-C) Lat,Lon (METOP-C) SZA (METOP-C ) Distance(km) Time Diff (sec)
1 07/19/2025 07:47:05 -80.69, -42.70 113.32 07/19/2025 07:48:17 -80.69, -42.68 113.27 0.43 72
2 07/19/2025 08:38:04 80.67, 124.86 66.74 07/19/2025 08:38:57 80.67, 124.95 66.79 1.59 53
3 07/19/2025 09:28:59 -80.65, -67.35 113.18 07/19/2025 09:29:37 -80.65, -67.48 113.18 2.47 38
4 07/19/2025 10:19:58 80.63, 100.21 66.88 07/19/2025 10:20:17 80.64, 100.14 66.88 1.37 19
5 07/19/2025 11:10:54 -80.63, -92.36 113.10 07/19/2025 11:10:57 -80.62, -92.29 113.09 1.27 3
6 07/19/2025 12:01:54 80.63, 74.87 66.91 07/19/2025 12:01:38 80.62, 74.99 66.92 2.27 16
7 07/19/2025 12:52:49 -80.60,-117.36 113.02 07/19/2025 12:52:18 -80.61,-117.44 113.05 1.64 31
8 07/19/2025 13:43:48 80.58, 50.21 67.04 07/19/2025 13:42:58 80.59, 50.18 67.01 0.70 50
9 07/19/2025 14:34:44 -80.58,-142.37 112.93 07/19/2025 14:33:38 -80.57,-142.26 112.96 2.08 66
10 07/31/2025 16:15:32 80.72, 9.67 69.27 07/31/2025 16:16:46 80.72, 9.65 69.32 0.25 74
11 07/31/2025 17:06:26 -80.72, 176.96 110.72 07/31/2025 17:07:27 -80.72, 177.04 110.67 1.44 61
12 07/31/2025 17:57:26 80.68, -14.98 69.41 07/31/2025 17:58:06 80.69, -15.15 69.41 3.16 40
13 07/31/2025 18:48:20 -80.68, 152.31 110.59 07/31/2025 18:48:47 -80.69, 152.23 110.58 1.42 27
14 07/31/2025 19:39:22 80.68, -40.33 69.44 07/31/2025 19:39:27 80.68, -40.30 69.45 0.54 5
15 07/31/2025 20:30:16 -80.68, 126.96 110.55 07/31/2025 20:30:08 -80.67, 127.08 110.54 2.34 8
16 07/31/2025 21:21:16 80.64, -64.98 69.58 07/31/2025 21:20:47 80.64, -65.11 69.54 2.36 29
17 07/31/2025 22:12:10 -80.64, 102.30 110.41 07/31/2025 22:11:28 -80.64, 102.27 110.44 0.51 42



Historial Predications of SNOs between NOAA-19 and METOP-C
